KINEIS-2D

Last updated on Thu Oct 23 2025 00:02:50 GMT+0000 (Coordinated Universal Time)

1 62930U 25028C 25295.45275282 .00002812 00000+0 42925-3 0 9992 2 62930 97.9629 347.2073 0002097 229.7290 130.3735 14.74606664 37667
UTC large
Height (km)
Speed (km/s)
/
Latitude / Longitude
Inclination (degrees)
Orbital Period (minutes)
Azimuth
Elevation
Range (km)
Doppler Factor

Next 0 passes for location: London (51.5072 / 0.1276)

Sorry there are no passes over London.